Islington, United Kingdom
Current Conditions -  °F | °C
As of 6:20 AM on Saturday 01 Nov 2014 (Local Time) from EGLC Reporting Station
Few Clouds Few Clouds  
Wind Chill: 63°   Ceiling: Unl
Heat Index: 63°   Visibility: 6mi
Dew Point: 57°   Wind: 7mph
Humidity: 82%   Direction: 220°SW
Pressure: 29.94"   Gusts: NA
Location:  51.54°N, 0.1°W
Report Text: EGLC 010620Z 22006KT 9999 FEW020 17/14 Q1014
Loading
Personal Weather Stations






























Interactive Weather Map
Tropical Storm Tracking
New forecast layout! Learn more

10-Day Weather Forecast

Advertisements
Track Severe Weather on mobile